Date_Time,Julian_Date,Latitude,Longitude,Instrument_Depth,U,V,Speed,Direction
(yyyy-mm-dd hh:mn:ss UTC),(JD),(+ deg. North),(+ deg. East),(m),(cm/s),(cm/s),(cm/s),(deg True)
1993-03-19 22:29:00 UTC,2449066.436806,28.8658,-90.4917,0018,3.67,-4.39,5.7220,140.1047
1993-03-19 22:59:00 UTC,2449066.457639,28.8658,-90.4917,0018,2.23,-3.93,4.5186,150.4281
1993-03-19 23:29:00 UTC,2449066.478472,28.8658,-90.4917,0018,1.78,-3.94,4.3234,155.6877
1993-03-19 23:59:00 UTC,2449066.499306,28.8658,-90.4917,0018,3.05,-6.64,7.3070,155.3289
1993-03-20 00:29:00 UTC,2449066.520139,28.8658,-90.4917,0018,1.75,-4.48,4.8097,158.6631
1993-03-20 01:29:00 UTC,2449066.561806,28.8658,-90.4917,0018,-0.57,-2.83,2.8868,191.3878
1993-03-20 01:59:00 UTC,2449066.582639,28.8658,-90.4917,0018,-0.62,-0.37,0.7220,239.1723
1993-03-20 02:29:00 UTC,2449066.603472,28.8658,-90.4917,0018,-0.36,2.27,2.2984,350.9885
1993-03-20 02:59:00 UTC,2449066.624306,28.8658,-90.4917,0018,-1.99,0.94,2.2008,295.2843
1993-03-20 03:29:00 UTC,2449066.645139,28.8658,-90.4917,0018,0.66,2.79,2.8670,13.3092
1993-03-20 04:29:00 UTC,2449066.686806,28.8658,-90.4917,0018,-3.43,3.28,4.7459,313.7194
1993-03-20 04:59:00 UTC,2449066.707639,28.8658,-90.4917,0018,-2.04,3.18,3.7781,327.3195
1993-03-20 05:29:00 UTC,2449066.728472,28.8658,-90.4917,0018,-6.31,4.43,7.7098,305.0712
1993-03-20 05:59:00 UTC,2449066.749306,28.8658,-90.4917,0018,-5.04,3.38,6.0684,303.8472
1993-03-20 06:29:00 UTC,2449066.770139,28.8658,-90.4917,0018,-0.58,3.92,3.9627,351.5836
1993-03-20 07:29:00 UTC,2449066.811806,28.8658,-90.4917,0018,0.68,3.55,3.6145,10.8436
1993-03-20 07:59:00 UTC,2449066.832639,28.8658,-90.4917,0018,-0.05,4.56,4.5603,359.3718
1993-03-20 08:29:00 UTC,2449066.853472,28.8658,-90.4917,0018,-0.33,0.93,0.9868,340.4633
1993-03-20 08:59:00 UTC,2449066.874306,28.8658,-90.4917,0018,-0.63,0.08,0.6351,277.2369
1993-03-20 09:29:00 UTC,2449066.895139,28.8658,-90.4917,0018,-0.57,-0.73,0.9262,217.9835
1993-03-20 10:29:00 UTC,2449066.936806,28.8658,-90.4917,0018,-0.47,-0.99,1.0959,205.3959
1993-03-20 10:59:00 UTC,2449066.957639,28.8658,-90.4917,0018,-2.13,-2.86,3.5660,216.6771
1993-03-20 11:29:00 UTC,2449066.978472,28.8658,-90.4917,0018,-4.58,-5.24,6.9595,221.1550
1993-03-20 11:59:00 UTC,2449066.999306,28.8658,-90.4917,0018,-4.58,-3.14,5.5530,235.5659
1993-03-20 12:29:00 UTC,2449067.020139,28.8658,-90.4917,0018,-3.09,-2.08,3.7248,236.0540
1993-03-20 13:29:00 UTC,2449067.061806,28.8658,-90.4917,0018,-1.55,-0.70,1.7007,245.6955
1993-03-20 13:59:00 UTC,2449067.082639,28.8658,-90.4917,0018,-2.55,0.21,2.5586,274.7079
1993-03-20 14:29:00 UTC,2449067.103472,28.8658,-90.4917,0018,-1.54,0.73,1.7043,295.3622
1993-03-20 14:59:00 UTC,2449067.124306,28.8658,-90.4917,0018,-1.07,1.72,2.0257,328.1146
1993-03-20 15:29:00 UTC,2449067.145139,28.8658,-90.4917,0018,0.39,0.81,0.8990,25.7100
1993-03-20 16:29:00 UTC,2449067.186806,28.8658,-90.4917,0018,-1.08,0.29,1.1183,285.0304
1993-03-20 16:59:00 UTC,2449067.207639,28.8658,-90.4917,0018,0.58,2.16,2.2365,15.0304
1993-03-20 17:29:00 UTC,2449067.228472,28.8658,-90.4917,0018,1.00,1.18,1.5467,40.2799
1993-03-20 17:59:00 UTC,2449067.249306,28.8658,-90.4917,0018,2.74,1.36,3.0590,63.6025
1993-03-20 18:29:00 UTC,2449067.270139,28.8658,-90.4917,0018,4.18,1.12,4.3274,75.0004
1993-03-20 19:29:00 UTC,2449067.311806,28.8658,-90.4917,0018,6.26,2.24,6.6487,70.3114
1993-03-20 19:59:00 UTC,2449067.332639,28.8658,-90.4917,0018,8.99,0.28,8.9944,88.2161
1993-03-20 20:29:00 UTC,2449067.353472,28.8658,-90.4917,0018,11.25,1.09,11.3027,84.4660
1993-03-20 20:59:00 UTC,2449067.374306,28.8658,-90.4917,0018,12.11,2.45,12.3553,78.5627
1993-03-20 21:29:00 UTC,2449067.395139,28.8658,-90.4917,0018,12.11,2.45,12.3553,78.5627
1993-03-20 22:29:00 UTC,2449067.436806,28.8658,-90.4917,0018,10.97,1.44,11.0641,82.5217
1993-03-20 22:59:00 UTC,2449067.457639,28.8658,-90.4917,0018,9.80,2.00,10.0020,78.4654
1993-03-20 23:29:00 UTC,2449067.478472,28.8658,-90.4917,0018,7.21,5.66,9.1662,51.8673
1993-03-20 23:59:00 UTC,2449067.499306,28.8658,-90.4917,0018,8.03,5.27,9.6049,56.7235
1993-03-21 00:29:00 UTC,2449067.520139,28.8658,-90.4917,0018,11.50,6.06,12.9990,62.2127
1993-03-21 01:29:00 UTC,2449067.561806,28.8658,-90.4917,0018,9.17,2.08,9.4029,77.2200
1993-03-21 01:59:00 UTC,2449067.582639,28.8658,-90.4917,0018,10.42,8.45,13.4156,50.9600
1993-03-21 02:29:00 UTC,2449067.603472,28.8658,-90.4917,0018,8.18,10.73,13.4924,37.3200
1993-03-21 02:59:00 UTC,2449067.624306,28.8658,-90.4917,0018,7.63,9.11,11.8831,39.9476
1993-03-21 03:29:00 UTC,2449067.645139,28.8658,-90.4917,0018,5.99,8.67,10.5380,34.6401
1993-03-21 04:29:00 UTC,2449067.686806,28.8658,-90.4917,0018,4.57,4.03,6.0931,48.5929
1993-03-21 04:59:00 UTC,2449067.707639,28.8658,-90.4917,0018,7.82,4.37,8.9582,60.8025
1993-03-21 05:29:00 UTC,2449067.728472,28.8658,-90.4917,0018,10.90,2.69,11.2270,76.1370
1993-03-21 05:59:00 UTC,2449067.749306,28.8658,-90.4917,0018,13.28,4.22,13.9344,72.3712
1993-03-21 06:29:00 UTC,2449067.770139,28.8658,-90.4917,0018,16.19,4.51,16.8064,74.4339
1993-03-21 07:29:00 UTC,2449067.811806,28.8658,-90.4917,0018,17.52,11.29,20.8426,57.2020
1993-03-21 07:59:00 UTC,2449067.832639,28.8658,-90.4917,0018,16.44,11.58,20.1090,54.8399
1993-03-21 08:29:00 UTC,2449067.853472,28.8658,-90.4917,0018,16.37,10.73,19.5732,56.7565
1993-03-21 08:59:00 UTC,2449067.874306,28.8658,-90.4917,0018,13.58,6.96,15.2597,62.8640
1993-03-21 09:29:00 UTC,2449067.895139,28.8658,-90.4917,0018,13.85,8.93,16.4793,57.1875
1993-03-21 10:29:00 UTC,2449067.936806,28.8658,-90.4917,0018,1.06,15.32,15.3566,3.9580
1993-03-21 10:59:00 UTC,2449067.957639,28.8658,-90.4917,0018,-26.89,25.46,37.0308,313.4353
1993-03-21 11:29:00 UTC,2449067.978472,28.8658,-90.4917,0018,-23.41,21.37,31.6971,312.3916
1993-03-21 11:59:00 UTC,2449067.999306,28.8658,-90.4917,0018,-23.07,20.44,30.8224,311.5409
1993-03-21 12:29:00 UTC,2449068.020139,28.8658,-90.4917,0018,-20.12,16.16,25.8062,308.7708
1993-03-21 13:29:00 UTC,2449068.061806,28.8658,-90.4917,0018,-12.61,8.18,15.0308,302.9711
1993-03-21 13:59:00 UTC,2449068.082639,28.8658,-90.4917,0018,-8.31,5.59,10.0152,303.9281
1993-03-21 14:29:00 UTC,2449068.103472,28.8658,-90.4917,0018,-2.49,5.72,6.2385,336.4758
1993-03-21 14:59:00 UTC,2449068.124306,28.8658,-90.4917,0018,-2.15,2.01,2.9432,313.0725
1993-03-21 15:29:00 UTC,2449068.145139,28.8658,-90.4917,0018,-2.14,3.67,4.2484,329.7533
1993-03-21 16:29:00 UTC,2449068.186806,28.8658,-90.4917,0018,-9.35,8.52,12.6496,312.3407
1993-03-21 16:59:00 UTC,2449068.207639,28.8658,-90.4917,0018,-11.08,11.88,16.2450,316.9956
1993-03-21 17:29:00 UTC,2449068.228472,28.8658,-90.4917,0018,-4.52,12.65,13.4333,340.3376
1993-03-21 17:59:00 UTC,2449068.249306,28.8658,-90.4917,0018,-5.21,15.41,16.2669,341.3200
1993-03-21 18:29:00 UTC,2449068.270139,28.8658,-90.4917,0018,-16.09,20.01,25.6766,321.1973
1993-03-21 19:29:00 UTC,2449068.311806,28.8658,-90.4917,0018,-20.86,21.61,30.0355,316.0117
1993-03-21 19:59:00 UTC,2449068.332639,28.8658,-90.4917,0018,-20.69,19.86,28.6792,313.8274
1993-03-21 20:29:00 UTC,2449068.353472,28.8658,-90.4917,0018,-13.04,13.81,18.9936,316.6427
1993-03-21 20:59:00 UTC,2449068.374306,28.8658,-90.4917,0018,-9.82,9.63,13.7539,314.4403
1993-03-21 21:29:00 UTC,2449068.395139,28.8658,-90.4917,0018,-9.27,10.81,14.2404,319.3856
1993-03-21 22:29:00 UTC,2449068.436806,28.8658,-90.4917,0018,-3.42,11.47,11.9690,343.3970
1993-03-21 22:59:00 UTC,2449068.457639,28.8658,-90.4917,0018,-7.38,16.66,18.2214,336.1078
1993-03-21 23:29:00 UTC,2449068.478472,28.8658,-90.4917,0018,-7.25,12.50,14.4503,329.8863
1993-03-21 23:59:00 UTC,2449068.499306,28.8658,-90.4917,0018,-7.52,12.86,14.8973,329.6826
1993-03-22 00:29:00 UTC,2449068.520139,28.8658,-90.4917,0018,-6.27,10.60,12.3156,329.3953
1993-03-22 01:29:00 UTC,2449068.561806,28.8658,-90.4917,0018,-4.84,8.93,10.1573,331.5426
1993-03-22 01:59:00 UTC,2449068.582639,28.8658,-90.4917,0018,-6.46,11.13,12.8689,329.8686
1993-03-22 02:29:00 UTC,2449068.603472,28.8658,-90.4917,0018,-1.14,11.61,11.6658,354.3920
1993-03-22 02:59:00 UTC,2449068.624306,28.8658,-90.4917,0018,-1.33,14.24,14.3020,354.6641
1993-03-22 03:29:00 UTC,2449068.645139,28.8658,-90.4917,0018,-0.15,13.24,13.2408,359.3509
1993-03-22 04:29:00 UTC,2449068.686806,28.8658,-90.4917,0018,3.12,15.23,15.5463,11.5774
1993-03-22 04:59:00 UTC,2449068.707639,28.8658,-90.4917,0018,2.78,14.51,14.7739,10.8460
1993-03-22 05:29:00 UTC,2449068.728472,28.8658,-90.4917,0018,1.64,11.17,11.2898,8.3526
1993-03-22 05:59:00 UTC,2449068.749306,28.8658,-90.4917,0018,3.92,13.41,13.9712,16.2947
1993-03-22 06:29:00 UTC,2449068.770139,28.8658,-90.4917,0018,3.62,10.68,11.2768,18.7242
1993-03-22 07:29:00 UTC,2449068.811806,28.8658,-90.4917,0018,5.43,9.82,11.2213,28.9405
1993-03-22 07:59:00 UTC,2449068.832639,28.8658,-90.4917,0018,5.92,9.92,11.5522,30.8277
1993-03-22 08:29:00 UTC,2449068.853472,28.8658,-90.4917,0018,6.58,6.18,9.0271,46.7955
1993-03-22 08:59:00 UTC,2449068.874306,28.8658,-90.4917,0018,8.14,8.54,11.7979,43.6263
1993-03-22 09:29:00 UTC,2449068.895139,28.8658,-90.4917,0018,7.73,8.84,11.7430,41.1676
1993-03-22 10:29:00 UTC,2449068.936806,28.8658,-90.4917,0018,8.77,4.26,9.7499,64.0920
1993-03-22 10:59:00 UTC,2449068.957639,28.8658,-90.4917,0018,6.99,7.75,10.4366,42.0484
1993-03-22 11:29:00 UTC,2449068.978472,28.8658,-90.4917,0018,8.14,8.54,11.7979,43.6263
1993-03-22 11:59:00 UTC,2449068.999306,28.8658,-90.4917,0018,6.49,4.12,7.6873,57.5917
1993-03-22 12:29:00 UTC,2449069.020139,28.8658,-90.4917,0018,10.32,7.07,12.5095,55.5858
1993-03-22 13:29:00 UTC,2449069.061806,28.8658,-90.4917,0018,8.94,6.72,11.1840,53.0686
1993-03-22 13:59:00 UTC,2449069.082639,28.8658,-90.4917,0018,9.48,6.47,11.4774,55.6869
1993-03-22 14:29:00 UTC,2449069.103472,28.8658,-90.4917,0018,6.60,7.39,9.9082,41.7680
1993-03-22 14:59:00 UTC,2449069.124306,28.8658,-90.4917,0018,6.13,5.95,8.5428,45.8537
1993-03-22 15:29:00 UTC,2449069.145139,28.8658,-90.4917,0018,2.99,10.75,11.1581,15.5434
1993-03-22 16:29:00 UTC,2449069.186806,28.8658,-90.4917,0018,-1.54,9.36,9.4858,350.6568
1993-03-22 16:59:00 UTC,2449069.207639,28.8658,-90.4917,0018,-3.17,12.46,12.8569,345.7260
1993-03-22 17:29:00 UTC,2449069.228472,28.8658,-90.4917,0018,-2.55,16.81,17.0023,351.3743
1993-03-22 17:59:00 UTC,2449069.249306,28.8658,-90.4917,0018,-4.11,18.65,19.0975,347.5721
1993-03-22 18:29:00 UTC,2449069.270139,28.8658,-90.4917,0018,-16.87,12.97,21.2795,307.5538
1993-03-22 19:29:00 UTC,2449069.311806,28.8658,-90.4917,0018,-10.74,6.52,12.5642,301.2610
1993-03-22 19:59:00 UTC,2449069.332639,28.8658,-90.4917,0018,2.96,7.89,8.4270,20.5640
1993-03-22 20:29:00 UTC,2449069.353472,28.8658,-90.4917,0018,-0.93,5.75,5.8247,350.8126
1993-03-22 20:59:00 UTC,2449069.374306,28.8658,-90.4917,0018,3.32,5.62,6.5274,30.5724
1993-03-22 21:29:00 UTC,2449069.395139,28.8658,-90.4917,0018,2.43,5.60,6.1045,23.4574
1993-03-22 22:29:00 UTC,2449069.436806,28.8658,-90.4917,0018,3.02,4.99,5.8327,31.1828
1993-03-22 22:59:00 UTC,2449069.457639,28.8658,-90.4917,0018,0.88,4.89,4.9686,10.2017
1993-03-22 23:29:00 UTC,2449069.478472,28.8658,-90.4917,0018,-1.91,-0.53,1.9822,254.4914
1993-03-22 23:59:00 UTC,2449069.499306,28.8658,-90.4917,0018,-3.02,-2.88,4.1731,226.3593
1993-03-23 00:29:00 UTC,2449069.520139,28.8658,-90.4917,0018,-2.67,-2.61,3.7338,225.6511
1993-03-23 01:29:00 UTC,2449069.561806,28.8658,-90.4917,0018,1.26,-2.48,2.7817,153.0665
1993-03-23 01:59:00 UTC,2449069.582639,28.8658,-90.4917,0018,0.01,-0.45,0.4501,178.7270
1993-03-23 02:29:00 UTC,2449069.603472,28.8658,-90.4917,0018,-0.02,-3.09,3.0901,180.3708
1993-03-23 02:59:00 UTC,2449069.624306,28.8658,-90.4917,0018,3.16,-1.50,3.4979,115.3929
1993-03-23 03:29:00 UTC,2449069.645139,28.8658,-90.4917,0018,2.25,-0.85,2.4052,110.6954
1993-03-23 04:29:00 UTC,2449069.686806,28.8658,-90.4917,0018,1.72,-0.81,1.9012,115.2172
1993-03-23 04:59:00 UTC,2449069.707639,28.8658,-90.4917,0018,5.63,0.21,5.6339,87.8638
1993-03-23 05:29:00 UTC,2449069.728472,28.8658,-90.4917,0018,5.36,2.66,5.9837,63.6062
1993-03-23 05:59:00 UTC,2449069.749306,28.8658,-90.4917,0018,6.00,1.69,6.2335,74.2692
1993-03-23 06:29:00 UTC,2449069.770139,28.8658,-90.4917,0018,6.04,4.11,7.3057,55.7661
1993-03-23 07:29:00 UTC,2449069.811806,28.8658,-90.4917,0018,9.08,0.02,9.0800,89.8738
1993-03-23 07:59:00 UTC,2449069.832639,28.8658,-90.4917,0018,10.89,-0.84,10.9223,94.4108
1993-03-23 08:29:00 UTC,2449069.853472,28.8658,-90.4917,0018,13.73,0.25,13.7323,88.9568
1993-03-23 08:59:00 UTC,2449069.874306,28.8658,-90.4917,0018,13.21,3.59,13.6891,74.7963
1993-03-23 09:29:00 UTC,2449069.895139,28.8658,-90.4917,0018,8.89,0.55,8.9070,86.4598
1993-03-23 10:29:00 UTC,2449069.936806,28.8658,-90.4917,0018,8.99,-0.17,8.9916,91.0833
1993-03-23 10:59:00 UTC,2449069.957639,28.8658,-90.4917,0018,8.60,-0.53,8.6163,93.5266
1993-03-23 11:29:00 UTC,2449069.978472,28.8658,-90.4917,0018,6.81,-0.35,6.8190,92.9421
1993-03-23 11:59:00 UTC,2449069.999306,28.8658,-90.4917,0018,5.27,0.60,5.3040,83.5047
1993-03-23 12:29:00 UTC,2449070.020139,28.8658,-90.4917,0018,8.89,0.55,8.9070,86.4598
1993-03-23 13:29:00 UTC,2449070.061806,28.8658,-90.4917,0018,6.91,1.04,6.9878,81.4408
1993-03-23 13:59:00 UTC,2449070.082639,28.8658,-90.4917,0018,4.36,1.03,4.4800,76.7082
1993-03-23 14:29:00 UTC,2449070.103472,28.8658,-90.4917,0018,7.71,1.10,7.7881,81.8803
1993-03-23 14:59:00 UTC,2449070.124306,28.8658,-90.4917,0018,9.55,3.11,10.0436,71.9619
1993-03-23 15:29:00 UTC,2449070.145139,28.8658,-90.4917,0018,11.27,4.18,12.0202,69.6504
1993-03-23 16:29:00 UTC,2449070.186806,28.8658,-90.4917,0018,9.09,1.45,9.2049,80.9368
1993-03-23 16:59:00 UTC,2449070.207639,28.8658,-90.4917,0018,9.83,2.54,10.1529,75.5121
1993-03-23 17:29:00 UTC,2449070.228472,28.8658,-90.4917,0018,6.67,4.03,7.7929,58.8597
1993-03-23 17:59:00 UTC,2449070.249306,28.8658,-90.4917,0018,6.95,5.56,8.9003,51.3402
1993-03-23 18:29:00 UTC,2449070.270139,28.8658,-90.4917,0018,6.08,2.32,6.5076,69.1142
1993-03-23 19:29:00 UTC,2449070.311806,28.8658,-90.4917,0018,8.59,4.12,9.5269,64.3763
1993-03-23 19:59:00 UTC,2449070.332639,28.8658,-90.4917,0018,4.83,0.15,4.8323,88.2212
1993-03-23 20:29:00 UTC,2449070.353472,28.8658,-90.4917,0018,8.39,3.00,8.9102,70.3245
1993-03-23 20:59:00 UTC,2449070.374306,28.8658,-90.4917,0018,7.22,3.55,8.0456,63.8171
1993-03-23 21:29:00 UTC,2449070.395139,28.8658,-90.4917,0018,7.13,3.37,7.8863,64.7022
1993-03-23 22:29:00 UTC,2449070.436806,28.8658,-90.4917,0018,4.57,4.03,6.0931,48.5929
1993-03-23 22:59:00 UTC,2449070.457639,28.8658,-90.4917,0018,3.40,4.14,5.3572,39.3948
1993-03-23 23:29:00 UTC,2449070.478472,28.8658,-90.4917,0018,1.32,3.25,3.5078,22.1047
1993-03-23 23:59:00 UTC,2449070.499306,28.8658,-90.4917,0018,-1.31,4.71,4.8888,344.4571
1993-03-24 00:29:00 UTC,2449070.520139,28.8658,-90.4917,0018,-3.02,5.30,6.1000,330.3250
1993-03-24 01:29:00 UTC,2449070.561806,28.8658,-90.4917,0018,-3.43,1.40,3.7047,292.2035
1993-03-24 01:59:00 UTC,2449070.582639,28.8658,-90.4917,0018,-4.80,0.84,4.8729,279.9262
1993-03-24 02:29:00 UTC,2449070.603472,28.8658,-90.4917,0018,-7.57,4.80,8.9635,302.3781
1993-03-24 02:59:00 UTC,2449070.624306,28.8658,-90.4917,0018,-8.59,4.07,9.5054,295.3519
1993-03-24 03:29:00 UTC,2449070.645139,28.8658,-90.4917,0018,-9.14,2.89,9.5860,287.5466
1993-03-24 04:29:00 UTC,2449070.686806,28.8658,-90.4917,0018,-7.14,3.16,7.8080,293.8731
1993-03-24 04:59:00 UTC,2449070.707639,28.8658,-90.4917,0018,-6.75,3.97,7.8309,300.4619
1993-03-24 05:29:00 UTC,2449070.728472,28.8658,-90.4917,0018,-8.94,3.79,9.7102,292.9739
1993-03-24 05:59:00 UTC,2449070.749306,28.8658,-90.4917,0018,-12.47,5.91,13.7996,295.3580
1993-03-24 06:29:00 UTC,2449070.770139,28.8658,-90.4917,0018,-11.04,5.89,12.5129,298.0806
1993-03-24 07:29:00 UTC,2449070.811806,28.8658,-90.4917,0018,-9.68,2.92,10.1108,286.7861
1993-03-24 07:59:00 UTC,2449070.832639,28.8658,-90.4917,0018,-8.77,4.15,9.7023,295.3237
1993-03-24 08:29:00 UTC,2449070.853472,28.8658,-90.4917,0018,-7.41,3.51,8.1993,295.3462
1993-03-24 08:59:00 UTC,2449070.874306,28.8658,-90.4917,0018,-8.09,6.04,10.0960,306.7451
1993-03-24 09:29:00 UTC,2449070.895139,28.8658,-90.4917,0018,-7.74,6.32,9.9925,309.2329
1993-03-24 10:29:00 UTC,2449070.936806,28.8658,-90.4917,0018,-5.86,4.21,7.2155,305.6946
1993-03-24 10:59:00 UTC,2449070.957639,28.8658,-90.4917,0018,-7.87,4.17,8.9065,297.9173
1993-03-24 11:29:00 UTC,2449070.978472,28.8658,-90.4917,0018,-7.06,3.79,8.0130,298.2281
1993-03-24 11:59:00 UTC,2449070.999306,28.8658,-90.4917,0018,-6.06,4.97,7.8374,309.3563
1993-03-24 12:29:00 UTC,2449071.020139,28.8658,-90.4917,0018,-7.39,4.49,8.6471,301.2820
1993-03-24 13:29:00 UTC,2449071.061806,28.8658,-90.4917,0018,-8.41,3.98,9.3042,295.3257
1993-03-24 13:59:00 UTC,2449071.082639,28.8658,-90.4917,0018,-6.30,3.76,7.3367,300.8298
1993-03-24 14:29:00 UTC,2449071.103472,28.8658,-90.4917,0018,-8.22,3.89,9.0940,295.3252
1993-03-24 14:59:00 UTC,2449071.124306,28.8658,-90.4917,0018,-8.88,2.99,9.3699,288.6090
1993-03-24 15:29:00 UTC,2449071.145139,28.8658,-90.4917,0018,-8.67,3.88,9.4986,294.1095
1993-03-24 16:29:00 UTC,2449071.186806,28.8658,-90.4917,0018,-7.74,4.44,8.9231,299.8405
1993-03-24 16:59:00 UTC,2449071.207639,28.8658,-90.4917,0018,-6.26,1.97,6.5627,287.4686
1993-03-24 17:29:00 UTC,2449071.228472,28.8658,-90.4917,0018,-10.25,2.20,10.4834,282.1138
1993-03-24 17:59:00 UTC,2449071.249306,28.8658,-90.4917,0018,-6.31,2.32,6.7230,290.1870
1993-03-24 18:29:00 UTC,2449071.270139,28.8658,-90.4917,0018,-8.20,4.88,9.5422,300.7578
1993-03-24 19:29:00 UTC,2449071.311806,28.8658,-90.4917,0018,-6.79,1.78,7.0194,284.6896
1993-03-24 19:59:00 UTC,2449071.332639,28.8658,-90.4917,0018,-6.24,1.07,6.3311,279.7301
1993-03-24 20:29:00 UTC,2449071.353472,28.8658,-90.4917,0018,-4.95,3.56,6.0972,305.7234
1993-03-24 20:59:00 UTC,2449071.374306,28.8658,-90.4917,0018,-5.06,2.40,5.6003,295.3754
1993-03-24 21:29:00 UTC,2449071.395139,28.8658,-90.4917,0018,-4.50,1.47,4.7340,288.0905
1993-03-24 22:29:00 UTC,2449071.436806,28.8658,-90.4917,0018,-4.72,1.02,4.8290,282.1942
1993-03-24 22:59:00 UTC,2449071.457639,28.8658,-90.4917,0018,-2.19,-0.18,2.1974,265.3013
1993-03-24 23:29:00 UTC,2449071.478472,28.8658,-90.4917,0018,-4.33,1.83,4.7008,292.9105
1993-03-24 23:59:00 UTC,2449071.499306,28.8658,-90.4917,0018,-4.90,-0.78,4.9617,260.9553
1993-03-25 00:29:00 UTC,2449071.520139,28.8658,-90.4917,0018,-4.19,1.21,4.3612,286.1078
1993-03-25 01:29:00 UTC,2449071.561806,28.8658,-90.4917,0018,-6.59,2.68,7.1141,292.1304
1993-03-25 01:59:00 UTC,2449071.582639,28.8658,-90.4917,0018,-6.07,3.31,6.9138,298.6039
1993-03-25 02:29:00 UTC,2449071.603472,28.8658,-90.4917,0018,-5.18,1.68,5.4456,287.9691
1993-03-25 02:59:00 UTC,2449071.624306,28.8658,-90.4917,0018,-5.69,2.70,6.2981,295.3851
1993-03-25 03:29:00 UTC,2449071.645139,28.8658,-90.4917,0018,-5.63,1.67,5.8725,286.5217
1993-03-25 04:29:00 UTC,2449071.686806,28.8658,-90.4917,0018,-5.69,2.70,6.2981,295.3851
1993-03-25 04:59:00 UTC,2449071.707639,28.8658,-90.4917,0018,-4.97,2.13,5.4072,293.1986
1993-03-25 05:29:00 UTC,2449071.728472,28.8658,-90.4917,0018,-5.87,2.78,6.4950,295.3420
1993-03-25 05:59:00 UTC,2449071.749306,28.8658,-90.4917,0018,-4.80,2.94,5.6288,301.4875
1993-03-25 06:29:00 UTC,2449071.770139,28.8658,-90.4917,0018,-5.88,3.23,6.7087,298.7809
1993-03-25 07:29:00 UTC,2449071.811806,28.8658,-90.4917,0018,-5.07,2.84,5.8112,299.2557
1993-03-25 07:59:00 UTC,2449071.832639,28.8658,-90.4917,0018,-1.44,2.56,2.9372,330.6422
1993-03-25 08:29:00 UTC,2449071.853472,28.8658,-90.4917,0018,-2.25,2.73,3.5377,320.5055
1993-03-25 08:59:00 UTC,2449071.874306,28.8658,-90.4917,0018,-2.45,1.83,3.0580,306.7575
1993-03-25 09:29:00 UTC,2449071.895139,28.8658,-90.4917,0018,-2.34,0.67,2.4340,285.9777
1993-03-25 10:29:00 UTC,2449071.936806,28.8658,-90.4917,0018,-0.36,0.17,0.3981,295.2777
1993-03-25 10:59:00 UTC,2449071.957639,28.8658,-90.4917,0018,0.00,0.00,0.0000,0.0000
1993-03-25 11:29:00 UTC,2449071.978472,28.8658,-90.4917,0018,0.47,0.99,1.0959,25.3959
1993-03-25 11:59:00 UTC,2449071.999306,28.8658,-90.4917,0018,1.01,0.74,1.2521,53.7708
1993-03-25 12:29:00 UTC,2449072.020139,28.8658,-90.4917,0018,0.91,1.45,1.7119,32.1118
1993-03-25 13:29:00 UTC,2449072.061806,28.8658,-90.4917,0018,-0.24,0.89,0.9218,344.9084
1993-03-25 13:59:00 UTC,2449072.082639,28.8658,-90.4917,0018,-1.09,0.74,1.3175,304.1725
1993-03-25 14:29:00 UTC,2449072.103472,28.8658,-90.4917,0018,-1.81,0.86,2.0039,295.4142
1993-03-25 14:59:00 UTC,2449072.124306,28.8658,-90.4917,0018,-3.89,1.84,4.3032,295.3145
1993-03-25 15:29:00 UTC,2449072.145139,28.8658,-90.4917,0018,-2.80,1.10,3.0083,291.4478
1993-03-25 16:29:00 UTC,2449072.186806,28.8658,-90.4917,0018,-2.71,1.28,2.9971,295.2825
1993-03-25 16:59:00 UTC,2449072.207639,28.8658,-90.4917,0018,-3.45,2.30,4.1464,303.6901
1993-03-25 17:29:00 UTC,2449072.228472,28.8658,-90.4917,0018,-2.62,3.12,4.0742,319.9784
1993-03-25 17:59:00 UTC,2449072.249306,28.8658,-90.4917,0018,-3.77,2.56,4.5570,304.1783
1993-03-25 18:29:00 UTC,2449072.270139,28.8658,-90.4917,0018,-3.62,1.94,4.1071,298.1874
1993-03-25 19:29:00 UTC,2449072.311806,28.8658,-90.4917,0018,-0.86,2.62,2.7575,341.8279
1993-03-25 19:59:00 UTC,2449072.332639,28.8658,-90.4917,0018,-1.44,2.56,2.9372,330.6422
1993-03-25 20:29:00 UTC,2449072.353472,28.8658,-90.4917,0018,-0.25,3.44,3.4491,355.8434
1993-03-25 20:59:00 UTC,2449072.374306,28.8658,-90.4917,0018,0.02,5.19,5.1900,0.2208
1993-03-25 21:29:00 UTC,2449072.395139,28.8658,-90.4917,0018,0.14,5.91,5.9117,1.3570
1993-03-25 22:29:00 UTC,2449072.436806,28.8658,-90.4917,0018,-1.47,7.89,8.0258,349.4461
1993-03-25 22:59:00 UTC,2449072.457639,28.8658,-90.4917,0018,-0.72,8.53,8.5603,355.1752
1993-03-25 23:29:00 UTC,2449072.478472,28.8658,-90.4917,0018,-1.91,7.65,7.8848,345.9814
1993-03-25 23:59:00 UTC,2449072.499306,28.8658,-90.4917,0018,0.38,9.45,9.4576,2.3027
1993-03-26 00:29:00 UTC,2449072.520139,28.8658,-90.4917,0018,-1.74,8.01,8.1968,347.7441
1993-03-26 01:29:00 UTC,2449072.561806,28.8658,-90.4917,0018,0.67,6.10,6.1367,6.2680
1993-03-26 01:59:00 UTC,2449072.582639,28.8658,-90.4917,0018,0.13,4.25,4.2520,1.7520
1993-03-26 02:29:00 UTC,2449072.603472,28.8658,-90.4917,0018,1.55,8.89,9.0241,9.8903
1993-03-26 02:59:00 UTC,2449072.624306,28.8658,-90.4917,0018,-2.51,4.29,4.9703,329.6689
1993-03-26 03:29:00 UTC,2449072.645139,28.8658,-90.4917,0018,-4.04,5.01,6.4360,321.1177
1993-03-26 04:29:00 UTC,2449072.686806,28.8658,-90.4917,0018,-3.38,5.47,6.4300,328.2874
1993-03-26 04:59:00 UTC,2449072.707639,28.8658,-90.4917,0018,-5.10,6.29,8.0978,320.9645
1993-03-26 05:29:00 UTC,2449072.728472,28.8658,-90.4917,0018,-3.68,4.84,6.0801,322.7532
1993-03-26 05:59:00 UTC,2449072.749306,28.8658,-90.4917,0018,-0.70,1.55,1.7007,335.6955
1993-03-26 06:29:00 UTC,2449072.770139,28.8658,-90.4917,0018,-0.22,3.98,3.9861,356.8361
1993-03-26 07:29:00 UTC,2449072.811806,28.8658,-90.4917,0018,-2.70,2.94,3.9917,317.4366
1993-03-26 07:59:00 UTC,2449072.832639,28.8658,-90.4917,0018,-2.80,3.21,4.2596,318.9026
1993-03-26 08:29:00 UTC,2449072.853472,28.8658,-90.4917,0018,-4.02,5.77,7.0323,325.1348
1993-03-26 08:59:00 UTC,2449072.874306,28.8658,-90.4917,0018,-3.24,3.20,4.5539,314.6441
1993-03-26 09:29:00 UTC,2449072.895139,28.8658,-90.4917,0018,-4.25,4.11,5.9122,314.0406
1993-03-26 10:29:00 UTC,2449072.936806,28.8658,-90.4917,0018,-0.99,2.35,2.5500,337.1555
1993-03-26 10:59:00 UTC,2449072.957639,28.8658,-90.4917,0018,-2.68,2.04,3.3681,307.2782
1993-03-26 11:29:00 UTC,2449072.978472,28.8658,-90.4917,0018,-0.60,5.27,5.3040,353.5047
1993-03-26 11:59:00 UTC,2449072.999306,28.8658,-90.4917,0018,-0.98,4.00,4.1183,346.2337
1993-03-26 12:29:00 UTC,2449073.020139,28.8658,-90.4917,0018,-1.72,1.04,2.0100,301.1593
1993-03-26 13:29:00 UTC,2449073.061806,28.8658,-90.4917,0018,-2.22,5.36,5.8016,337.5017
1993-03-26 13:59:00 UTC,2449073.082639,28.8658,-90.4917,0018,-1.78,3.94,4.3234,335.6877
1993-03-26 14:29:00 UTC,2449073.103472,28.8658,-90.4917,0018,-2.69,2.49,3.6655,312.7889
1993-03-26 14:59:00 UTC,2449073.124306,28.8658,-90.4917,0018,-3.14,2.48,4.0012,308.3020
1993-03-26 15:29:00 UTC,2449073.145139,28.8658,-90.4917,0018,-5.42,2.57,5.9984,295.3689
1993-03-26 16:29:00 UTC,2449073.186806,28.8658,-90.4917,0018,-4.59,3.39,5.7062,306.4482